Texas Shootout - LOFT INVENTORY

Station: INVENTORY - T Race

Distance: 1 Miles    

Release: 15-Jun-2017 08:00

Weather Release:    Arrival:

Wind at Release:     Wind at Arrival:

Temp at Release: °    Temp at Arrival: °

Lofts: 155

Birds: 968

Clocked: 798

EVERYTHING BUT WHAT COME IN THIS WEEK
Drops Pos Breeder Pigeon Name Color Sex Ent Arrival Speed To Win Eligible
1 Flying D Loft - TX 0302-AU17-FLYD BB H 1 13:53:50.65 4.974 00:00:00 Yes
2 777 Victory Loft - NY 0154-AU17-NYLN BB C 1 13:54:12.73 4.969 00:00:21 Yes
3 Zhenyuan Guo - SC 0688-AU17-GUO BC H 1 13:54:20.78 4.967 00:00:30 Yes
4 Little Reata Loft - TX 17341-AU17-JETT BCWF H 1 13:54:23.85 4.966 00:00:34 Yes
5 Zapopan-Palomar-Ayon Loft - TX 0499-AU17-AYON BB C 1 13:54:28.04 4.965 00:00:38 Yes
6 Baudy Loft - LA 1325-AU17-CRSO BC C 1 13:54:37.43 4.963 00:00:47 Died
7 Baudy Loft - LA 1312-AU17-CRSO BC H 2 13:55:22.65 4.952 00:01:34 Yes
7 Flying D Diva - TX 0197-AU17-FLYD DC H 1 13:55:23.67 4.952 00:01:34 Yes
9 Taj Syndicate - TX 0022-AU17-EISN BC C 1 13:55:26.92 4.951 00:01:39 Yes
9 Racine - WI 0591-AU17-RAC BB H 1 13:55:27.03 4.951 00:01:39 Yes
9 Zhenyuan Guo - SC 0687-AU17-GUO BC H 2 13:55:28.46 4.951 00:01:39 Yes
12 Baudy Loft - LA 1326-AU17-CRSO BC H 3 13:55:34.89 4.950 00:01:43 Died
13 Yong Bi - TX 59033-AU17-ARPU BC H 1 13:55:35.87 4.949 00:01:47 Yes
14 A D L Loft - IL 0167-AU17-ADL BB H 1 13:55:56.29 4.945 00:02:05 Yes
15 Zapopan-Palomar-Ayon Loft - TX 0464-AU17-AYON BC C 2 13:56:05.17 4.943 00:02:13 Yes
16 Vick Corso - LA 1314-AU17-CRSO BCWF C 1 13:56:07.89 4.942 00:02:17 Yes
17 Flying D / Matt Mitchell - TX 0301-AU17-FLYD BC H 1 13:56:10.42 4.941 00:02:22 Yes
18 Bynum Family Lofts - TX 0201-AU17-BFL BB H 1 13:57:01.12 4.930 00:03:09 Yes
19 Elton Dinga - TX 12117-AU17-AA DCWF H 1 13:57:07.92 4.928 00:03:18 Yes
20 Dekeratry Loft - TX 7482-AU17-HOT GRIZ H 1 13:57:12.70 4.927 00:03:23 Yes
21 Floating Feather Loft - TX 1339-AU17-CVL BB H 1 13:57:22.09 4.925 00:03:31 Yes
22 Baudy Loft - LA 1290-AU17-CRSO BC C 4 13:57:28.35 4.923 00:03:40 Yes
23 Band Of Brothers - TX 0780-AU17-HOOK BB C 1 13:57:34.70 4.922 00:03:44 Yes
24 Holleys Silver Star - TX 0938-AU17-DEN BC H 1 13:57:37.09 4.921 00:03:49 Yes
25 Flying D / Matt Mitchell - TX 0129-AU17-FLYD DCWF C 2 13:57:41.28 4.920 00:03:53 Yes
26 Racing Pigeon Mall - WA 0711-AU17-RPM BB C 1 13:57:50.06 4.918 00:04:02 Yes
27 Zhenyuan Guo - SC 0684-AU17-GUO BC H 3 13:58:03.04 4.916 00:04:10 Yes
28 French Camp Connection - CA 71984-AU17-MAN BB C 1 13:58:13.71 4.913 00:04:24 Yes
29 Two Cousins - LA 3061-AU17-BYOU BBWF C 1 13:58:24.34 4.911 00:04:32 Died
30 777 Victory Loft - NY 0147-AU17-NYLN BBPD H 2 13:59:01.56 4.902 00:05:12 Yes
31 Vick Corso - LA 1296-AU17-CRSO BC C 2 13:59:05.42 4.901 00:05:16 Yes
32 Chinese Union 2 - VA 5086-AU17-TONY BWFP C 1 13:59:25.34 4.897 00:05:34 Yes
33 Steven Loft - TX 5880-AU17-ARPU BB H 1 13:59:43.79 4.893 00:05:51 Yes
34 Neighbor Hood Bullies - TX 0578-AU17-WF SLT H 1 14:00:03.67 4.888 00:06:14 Yes
35 Elton Dinga - TX 12141-AU17-AA SIL H 2 14:00:18.37 4.885 00:06:27 Yes
35 Frank Martinez - CA 8204-AU17-FORT BC C 1 14:00:18.48 4.885 00:06:27 Yes
35 Flying D / Matt Mitchell - TX 0195-AU17-FLYD BB H 3 14:00:18.75 4.885 00:06:27 Yes
35 Timberline Speed Loft - TX 0821-AU17-TSL BBWF C 1 14:00:18.79 4.885 00:06:27 Died
35 Sandstrom Brothers Loft - MN 0788-AU17-SBL BC C 1 14:00:19.06 4.885 00:06:27 Yes
40 - 0999-AU17-ARPU 2 14:00:19.48 4.884 00:06:31
40 Arandas Loft - TX 14366-AU17-ARPU BB H 1 14:00:20.82 4.884 00:06:31 Yes
40 Steven Loft - TX 5865-AU17-ARPU BB H 2 14:00:21.18 4.884 00:06:31 Yes
40 Zhenyuan Guo - SC 0689-AU17-GUO BC H 4 14:00:21.51 4.884 00:06:31 Yes
40 Flying D Diva - TX 0196-AU17-FLYD BB H 2 14:00:21.51 4.884 00:06:31 Yes
40 French Camp Connection - CA 71981-AU17-MAN BB C 2 14:00:22.42 4.884 00:06:31 Yes
40 Floating Feather Loft - TX 1343-AU17-CVL BB C 2 14:00:23.00 4.884 00:06:31 Yes
40 Steven Loft - TX 5868-AU17-ARPU BBPD H 3 14:00:23.48 4.884 00:06:31 Yes
40 Flying D / Matt Mitchell - TX 0192-AU17-FLYD BB H 4 14:00:23.76 4.884 00:06:31 Yes
49 Flying D / Matt Mitchell - TX 0193-AU17-FLYD BBWF H 5 14:00:23.95 4.883 00:06:36 Yes
49 Yong Bi - TX 59031-AU17-ARPU BC H 2 14:00:24.46 4.883 00:06:36 Yes
49 Flying D Diva - TX 0194-AU17-FLYD BBPD H 4 14:00:24.59 4.883 00:06:36 Yes
49 Vick Corso - LA 1313-AU17-CRSO BC C 3 14:00:24.82 4.883 00:06:36 Yes
49 Zhenyuan Guo - SC 0682-AU17-GUO BC H 5 14:00:24.90 4.883 00:06:36 Yes
49 English Syndicate - UK 12527-GB17-D BCWF C 2 14:00:25.06 4.883 00:06:36 Yes
49 Neighbor Hood Bullies - TX 0543-AU17-WF BB H 3 14:00:25.14 4.883 00:06:36 Yes
49 Zhenyuan Guo - SC 0686-AU17-GUO BC H 6 14:00:25.96 4.883 00:06:36 Yes
49 Dream Team - FL 0704-AU17-JCZL BBWF C 1 14:00:26.12 4.883 00:06:36 Yes
49 Holleys Silver Star - TX 0941-AU17-DEN RC C 2 14:00:26.34 4.883 00:06:36 Yes
49 Franco Loft - TX 0745-AU17-DEN BB H 1 14:00:27.04 4.883 00:06:36 Yes
49 Kwan Loft - CA 0789-AU17-KWAN BB C 1 14:00:27.92 4.883 00:06:36 Died
49 English Syndicate - UK 12529-GB17-D BB H 1 14:00:28.04 4.883 00:06:36 Yes
49 Flying D Diva - TX 0141-AU17-FLYD BWFP H 3 14:00:28.09 4.883 00:06:36 Yes
63 Two Cousins - LA 3071-AU17-BYOU DWFP H 2 14:00:29.06 4.882 00:06:40 Yes
63 Elton Dinga - TX 12135-AU17-AA BB C 3 14:00:29.15 4.882 00:06:40 Yes
63 Sandstrom Brothers Loft - MN 0790-AU17-SBL BC H 2 14:00:29.46 4.882 00:06:40 Yes
63 Vick Corso - LA 1285-AU17-CRSO BC H 4 14:00:29.48 4.882 00:06:40 Yes
63 Zapopan-Palomar-Ayon Loft - TX 0468-AU17-AYON BC C 3 14:00:30.40 4.882 00:06:40 Died
63 Steven Loft - TX 5878-AU17-ARPU BB C 4 14:00:30.48 4.882 00:06:40 Yes
63 Racine - WI 0595-AU17-RAC BLK H 2 14:00:30.93 4.882 00:06:40 Yes
63 - 0663-AU17-JCZL 2 14:00:31.17 4.882 00:06:40
63 Flying D Loft - TX 0198-AU17-FLYD BC H 2 14:00:32.54 4.882 00:06:40 Yes
72 Little Reata Loft - TX 17344-AU17-JETT BC H 2 14:00:33.01 4.881 00:06:45 Yes
72 Neighbor Hood Bullies - TX 1000-AU17-ARPU DWFP H 4 14:00:33.14 4.881 00:06:45 Yes
72 Sandstrom Brothers Loft - MN 0787-AU17-SBL BCWF H 3 14:00:34.10 4.881 00:06:45 Yes
72 Dream Team - FL 0816-AU17-JCZL BC H 3 14:00:34.53 4.881 00:06:45 Yes
72 Arandas Loft - TX 14359-AU17-ARPU BB H 2 14:00:35.17 4.881 00:06:45 Yes
72 Racing Pigeon Mall - WA 0710-AU17-RPM BB H 2 14:00:35.76 4.881 00:06:45 Yes
72 Frank Martinez - CA 8200-AU17-FORT BC H 2 14:00:36.15 4.881 00:06:45 Yes
72 Taj Syndicate - TX 0025-AU17-EISN DC C 2 14:00:36.35 4.881 00:06:45 Yes
72 Vick Corso - LA 1300-AU17-CRSO BC H 5 14:00:36.54 4.881 00:06:45 Yes
72 A D L Loft - IL 0195-AU17-ADL LC C 2 14:00:37.03 4.881 00:06:45 Yes
72 French Camp Connection - CA 71985-AU17-MAN BB C 3 14:00:37.06 4.881 00:06:45 Yes
83 Dekeratry Loft - TX 7486-AU17-HOT RC H 2 14:00:37.62 4.880 00:06:49 Yes
83 Arandas Loft - TX 14361-AU17-ARPU DC H 3 14:00:38.17 4.880 00:06:49 Yes
83 Vick Corso - LA 1289-AU17-CRSO DWFP H 6 14:00:38.39 4.880 00:06:49 Yes
83 777 Victory Loft - NY 0132-AU17-NYLN BWFP H 3 14:00:38.73 4.880 00:06:49 Yes
83 Ledet-Gutrz - LA 17491-AU17-LG BC C 1 14:00:38.98 4.880 00:06:49 Yes
83 - 0238-AU17-WF 5 14:00:40.23 4.880 00:06:49
83 Arandas Loft - TX 14352-AU17-ARPU BB C 4 14:00:41.15 4.880 00:06:49 Died
90 Carroll Hoover - PA 1136-IF17-RLPC SIL H 1 14:00:41.57 4.879 00:06:53 Yes
90 English Syndicate - UK 12530-GB17-D BB C 3 14:00:42.21 4.879 00:06:53 Yes
90 Highland Loft - NY 17159-AU17-DZ BC H 1 14:00:43.46 4.879 00:06:53 Yes
90 Holleys Silver Star - TX 0943-AU17-DEN SIL C 3 14:00:43.87 4.879 00:06:53 Yes
90 Frank Martinez - CA 8202-AU17-FORT BC C 4 14:00:44.29 4.879 00:06:53 Yes
90 Frank Martinez - CA 0739-AU17-POCO DC H 3 14:00:44.89 4.879 00:06:53 Yes
90 Milestone Loft - CA 0189-AU17-SD GRIZ H 1 14:00:44.98 4.879 00:06:53 Yes
90 Floating Feather Loft - TX 1346-AU17-CVL BB C 1 14:00:45.15 4.879 00:06:53 Yes
90 Chinese Union 2 - VA 0100-AU17-CHAN BB C 2 14:00:45.31 4.879 00:06:53 Yes
90 Two Cousins - LA 3075-AU17-BYOU DC H 3 14:00:45.89 4.879 00:06:53 Yes
100 Racine - WI 0594-AU17-RAC BB C 3 14:00:46.00 4.878 00:06:58 Yes

There are 992 bird records

Note: These Race Results are unofficial and subject to change until verified by the Race Committee and declared final.